Weather History for Kalaeloa, HI

Change the Weather History Date:

Wednesday, October 26, 2011

  Actual Average (PHNL) Record (PHNL)
Temperature  
Mean Temperature 76 °F 79 °F  
Max Temperature 82 °F 86 °F 90 °F (1984)
Min Temperature 70 °F 73 °F 64 °F (1962)
Degree Days  
Heating Degree Days 0 0  
Month to date heating degree days 0  
Since 1 July heating degree days 0  
Cooling Degree Days 11 14  
Month to date cooling degree days 397  
Year to date cooling degree days 3876  
Growing Degree Days 26 (Base 50)    
Moisture  
Dew Point 65 °F    
Average Humidity 70    
Maximum Humidity 87    
Minimum Humidity 52    
Precipitation  
Precipitation 0.00 in 0.07 in 0.43 in (1982)
Month to date precipitation 1.46  
Year to date precipitation 11.06  
Snow  
Snow 0.00 in - - ()
Month to date snowfall  
Since 1 July snowfall  
Since 1 September snowfall  
Snow Depth -    
Sea Level Pressure  
Sea Level Pressure 30.04 in    
Wind  
Wind Speed 2 mph (East)    
Max Wind Speed 10 mph    
Max Gust Speed 18 mph    
Visibility 10 miles    
Events      
T = Trace of Precipitation, MM = Missing Value Source: NWS Daily Summary

Daily Weather History Graph

Daily Weather History Graph

Search for Another Location

Airport:

Trip Planner

Search our weather history database for the weather conditions in past years. The results will help you decide how hot, cold, wet, or windy it might be!

Date:

Astronomy

Oct. 26, 2011 Rise Set
Actual Time 6:32 AM HST 5:59 PM HST
Civil Twilight 6:09 AM HST 6:22 PM HST
Nautical Twilight 5:43 AM HST 6:48 PM HST
Astronomical Twilight 5:17 AM HST 7:14 PM HST
Moon 6:26 AM HST (10/26) 6:01 PM HST (10/26)
Length of Visible Light 12h 12m
Length of Day
11h 27m
New Moon, 0% of the Moon is Illuminated
Oct 26
New Moon
Nov 2
First Quarter
Nov 10
Full
Nov 18
Last Quarter
Nov 24
New

Hourly Weather History & Observations

Time (HST) Temp. Heat Index Dew Point Humidity Pressure Visibility Wind Dir Wind Speed Gust Speed Precip Events Conditions
12:53 AM 71.1 °F - 64.0 °F 78% 30.06 in 10.0 mi Calm Calm - N/A   Clear
1:53 AM 71.1 °F - 64.0 °F 78% 30.04 in 10.0 mi Calm Calm - N/A   Clear
2:53 AM 70.0 °F - 64.0 °F 81% 30.03 in 10.0 mi Calm Calm - N/A   Clear
3:53 AM 70.0 °F - 64.9 °F 84% 30.02 in 10.0 mi Variable 3.5 mph - N/A   Clear
4:53 AM 70.0 °F - 64.9 °F 84% 30.03 in 10.0 mi NE 3.5 mph - N/A   Clear
5:53 AM 70.0 °F - 64.9 °F 84% 30.04 in 10.0 mi Calm Calm - N/A   Overcast
6:53 AM 70.0 °F - 66.0 °F 87% 30.05 in 10.0 mi Calm Calm - N/A   Overcast
7:53 AM 75.9 °F - 66.9 °F 74% 30.06 in 10.0 mi Calm Calm - N/A   Partly Cloudy
8:53 AM 80.1 °F 82.1 °F 66.0 °F 62% 30.07 in 10.0 mi Variable 4.6 mph - N/A   Clear
9:53 AM 82.0 °F 84.1 °F 66.0 °F 58% 30.07 in 10.0 mi Variable 3.5 mph - N/A   Partly Cloudy
10:53 AM 82.0 °F 83.4 °F 64.0 °F 54% 30.06 in 10.0 mi SE 9.2 mph - N/A   Mostly Cloudy
11:53 AM 82.0 °F 83.8 °F 64.9 °F 56% 30.04 in 10.0 mi SE 8.1 mph - N/A   Overcast
12:53 PM 81.0 °F 84.1 °F 69.1 °F 67% 30.01 in 10.0 mi SE 10.4 mph 18.4 mph N/A   Overcast
1:53 PM 80.1 °F 82.7 °F 68.0 °F 67% 29.99 in 10.0 mi East 5.8 mph - N/A   Overcast
2:53 PM 82.0 °F 84.1 °F 66.0 °F 58% 29.99 in 10.0 mi Variable 5.8 mph - N/A   Overcast
3:53 PM 82.0 °F 83.1 °F 63.0 °F 52% 29.98 in 10.0 mi Variable 5.8 mph - N/A   Partly Cloudy
4:53 PM 81.0 °F 82.7 °F 64.9 °F 58% 29.99 in 10.0 mi Variable 3.5 mph - N/A   Clear
5:53 PM 78.1 °F - 64.0 °F 62% 30.01 in 10.0 mi Variable 3.5 mph - N/A   Clear
6:53 PM 75.9 °F - 64.9 °F 69% 30.02 in 10.0 mi Calm Calm - N/A   Partly Cloudy
7:53 PM 73.9 °F - 64.9 °F 73% 30.05 in 10.0 mi Calm Calm - N/A   Clear
8:53 PM 73.9 °F - 64.9 °F 73% 30.06 in 10.0 mi Calm Calm - N/A   Overcast
9:53 PM 73.9 °F - 64.9 °F 73% 30.06 in 10.0 mi ENE 3.5 mph - N/A   Scattered Clouds
10:53 PM 73.0 °F - 64.9 °F 76% 30.06 in 10.0 mi Calm Calm - N/A   Partly Cloudy
11:20 PM 73.4 °F - 64.4 °F 73% 30.04 in 10.0 mi Calm Calm - N/A   Partly Cloudy
11:53 PM 72.0 °F - 64.0 °F 76% 30.06 in 10.0 mi Calm Calm - N/A   Clear